• In Uzbekistan
  • List of Countries
  • For 7 days
  • Water Temperature
  • Satellite Maps
  • Weather Map
  • Weather Widgets
  • user-avatar
    Login

    Hourly Weather Corfu

    Today, 16 December, Saturday

    Time Temperature Precipitation Wind Pressure Humidity
    00:00 +13°C° 0.2 mm 8 mps 758 mmHg 95%
    01:00 +13°C° 0 mm 9 mps 757 mmHg 95%
    02:00 +13°C° 0.2 mm 8 mps 757 mmHg 95%
    03:00 +13°C° 0.2 mm 8 mps 757 mmHg 96%
    04:00 +13°C° 0.2 mm 8 mps 757 mmHg 96%
    05:00 +13°C° 0.2 mm 8 mps 757 mmHg 96%
    06:00 +14°C° 0.2 mm 7 mps 756 mmHg 96%
    07:00 +14°C° 0 mm 6 mps 756 mmHg 96%
    08:00 +15°C° 0.5 mm 7 mps 756 mmHg 95%
    09:00 +15°C° 0.5 mm 7 mps 756 mmHg 94%
    10:00 +15°C° 0.5 mm 8 mps 756 mmHg 93%
    11:00 +13°C° 1.6 mm 8 mps 756 mmHg 93%
    12:00 +13°C° 1.6 mm 8 mps 756 mmHg 93%
    13:00 +12°C° 0 mm 8 mps 756 mmHg 91%
    14:00 +12°C° 2.7 mm 7 mps 756 mmHg 93%
    15:00 +11°C° 2.7 mm 7 mps 756 mmHg 95%
    16:00 +11°C° 2.7 mm 6 mps 756 mmHg 96%
    17:00 +12°C° 1.7 mm 5 mps 756 mmHg 96%
    18:00 +11°C° 1.7 mm 4 mps 756 mmHg 96%
    19:00 +11°C° 1.7 mm 4 mps 756 mmHg 96%
    20:00 +11°C° 0.6 mm 3 mps 756 mmHg 95%
    21:00 +11°C° 0.6 mm 3 mps 756 mmHg 94%
    22:00 +11°C° 0.6 mm 3 mps 756 mmHg 94%
    23:00 +12°C° 0.6 mm 3 mps 756 mmHg 94%

    Tomorrow, 17 December, Sunday

    Time Temperature Precipitation Wind Pressure Humidity
    00:00 +12°C° 0.6 mm 3 mps 756 mmHg 95%
    01:00 +12°C° 0.6 mm 3 mps 756 mmHg 96%
    02:00 +12°C° 0.7 mm 3 mps 756 mmHg 95%
    03:00 +12°C° 0.7 mm 4 mps 756 mmHg 95%
    04:00 +12°C° 0.7 mm 4 mps 757 mmHg 94%
    05:00 +12°C° 0.2 mm 4 mps 757 mmHg 94%
    06:00 +11°C° 0.2 mm 4 mps 757 mmHg 93%
    07:00 +11°C° 0.2 mm 4 mps 757 mmHg 93%
    08:00 +12°C° 0.3 mm 4 mps 758 mmHg 88%
    09:00 +12°C° 0.3 mm 4 mps 758 mmHg 83%
    10:00 +12°C° 0.3 mm 3 mps 759 mmHg 79%
    11:00 +13°C° 0.2 mm 3 mps 759 mmHg 75%
    12:00 +13°C° 0.2 mm 4 mps 759 mmHg 71%
    13:00 +13°C° 0.2 mm 4 mps 759 mmHg 67%
    14:00 +12°C° 0.1 mm 3 mps 759 mmHg 71%
    15:00 +11°C° 0.1 mm 3 mps 760 mmHg 74%
    16:00 +11°C° 0.1 mm 3 mps 760 mmHg 77%
    17:00 +10°C° 0 mm 3 mps 760 mmHg 80%
    18:00 +9°C° 0 mm 3 mps 761 mmHg 82%
    19:00 +9°C° 0 mm 3 mps 761 mmHg 84%
    20:00 +8°C° 0.1 mm 3 mps 761 mmHg 85%
    21:00 +8°C° 0.1 mm 3 mps 762 mmHg 87%
    22:00 +8°C° 0.1 mm 3 mps 762 mmHg 88%
    23:00 +8°C° 0.1 mm 3 mps 762 mmHg 88%

    Day after tomorrow, 18 December, Monday

    Time Temperature Precipitation Wind Pressure Humidity
    00:00 +8°C° 0.1 mm 3 mps 763 mmHg 87%
    01:00 +7°C° 0.1 mm 3 mps 763 mmHg 87%
    02:00 +7°C° 0.1 mm 3 mps 763 mmHg 87%
    03:00 +7°C° 0.1 mm 3 mps 763 mmHg 87%
    04:00 +7°C° 0.1 mm 3 mps 763 mmHg 87%
    05:00 +7°C° 0 mm 3 mps 763 mmHg 87%
    06:00 +5°C° 0 mm 3 mps 763 mmHg 86%
    07:00 +5°C° 0 mm 3 mps 763 mmHg 86%
    08:00 +6°C° 0 mm 4 mps 763 mmHg 82%
    09:00 +7°C° 0 mm 4 mps 764 mmHg 77%
    10:00 +8°C° 0 mm 4 mps 764 mmHg 73%
    11:00 +8°C° 0.1 mm 4 mps 764 mmHg 71%
    12:00 +8°C° 0.1 mm 5 mps 763 mmHg 70%
    13:00 +8°C° 0.1 mm 5 mps 763 mmHg 68%
    14:00 +8°C° 0.2 mm 6 mps 763 mmHg 73%
    15:00 +7°C° 0.2 mm 6 mps 763 mmHg 77%
    16:00 +5°C° 0.2 mm 7 mps 763 mmHg 81%
    17:00 +5°C° 0.1 mm 7 mps 764 mmHg 83%
    18:00 +4°C° 0.1 mm 7 mps 764 mmHg 84%
    19:00 +4°C° 0.1 mm 7 mps 765 mmHg 86%
    20:00 +4°C° 0 mm 6 mps 765 mmHg 86%
    21:00 +3°C° 0 mm 6 mps 766 mmHg 86%
    22:00 +3°C° 0 mm 6 mps 766 mmHg 86%
    23:00 +2°C° 0 mm 5 mps 766 mmHg 85%

    19 December, Tuesday

    Time Temperature Precipitation Wind Pressure Humidity
    00:00 +2°C° 0 mm 5 mps 766 mmHg 84%
    01:00 +2°C° 0 mm 5 mps 767 mmHg 83%
    02:00 +2°C° 0 mm 5 mps 767 mmHg 82%
    03:00 +2°C° 0 mm 5 mps 767 mmHg 80%
    04:00 +1°C° 0 mm 5 mps 767 mmHg 78%
    05:00 +1°C° 0 mm 5 mps 768 mmHg 76%
    06:00 +1°C° 0 mm 5 mps 768 mmHg 74%
    07:00 +1°C° 0 mm 5 mps 769 mmHg 72%
    08:00 +3°C° 0 mm 4 mps 769 mmHg 65%
    09:00 +5°C° 0 mm 4 mps 769 mmHg 57%
    10:00 +6°C° 0 mm 4 mps 770 mmHg 49%
    11:00 +6°C° 0 mm 5 mps 770 mmHg 47%
    12:00 +7°C° 0 mm 5 mps 769 mmHg 45%
    13:00 +7°C° 0 mm 5 mps 769 mmHg 43%
    14:00 +6°C° 0 mm 5 mps 769 mmHg 49%
    15:00 +6°C° 0 mm 5 mps 770 mmHg 54%
    16:00 +4°C° 0 mm 6 mps 770 mmHg 60%
    17:00 +3°C° 0 mm 6 mps 770 mmHg 62%
    18:00 +3°C° 0 mm 5 mps 770 mmHg 64%
    19:00 +2°C° 0 mm 5 mps 770 mmHg 66%
    20:00 +2°C° 0 mm 5 mps 771 mmHg 66%
    21:00 +2°C° 0 mm 5 mps 771 mmHg 67%
    22:00 +2°C° 0 mm 5 mps 771 mmHg 67%
    23:00 +3°C° 0 mm 4 mps 771 mmHg 66%

    20 December, Wednesday

    Time Temperature Precipitation Wind Pressure Humidity
    00:00 +1°C° 0 mm 4 mps 770 mmHg 66%
    01:00 +1°C° 0 mm 4 mps 770 mmHg 65%
    02:00 +1°C° 0 mm 4 mps 770 mmHg 64%
    03:00 +1°C° 0 mm 4 mps 770 mmHg 63%
    04:00 +1°C° 0 mm 4 mps 770 mmHg 61%
    05:00 +1°C° 0 mm 4 mps 770 mmHg 60%
    06:00 +1°C° 0 mm 4 mps 770 mmHg 58%
    07:00 +1°C° 0 mm 4 mps 770 mmHg 57%
    08:00 +3°C° 0 mm 4 mps 770 mmHg 51%
    09:00 +4°C° 0 mm 3 mps 770 mmHg 45%
    10:00 +7°C° 0 mm 3 mps 770 mmHg 39%
    11:00 +7°C° 0 mm 3 mps 770 mmHg 38%
    12:00 +7°C° 0 mm 4 mps 770 mmHg 36%
    13:00 +7°C° 0 mm 4 mps 770 mmHg 35%
    14:00 +6°C° 0 mm 4 mps 770 mmHg 39%
    15:00 +5°C° 0 mm 4 mps 770 mmHg 44%
    16:00 +3°C° 0 mm 5 mps 770 mmHg 49%
    17:00 +4°C° 0 mm 4 mps 770 mmHg 51%
    18:00 +3°C° 0 mm 4 mps 770 mmHg 53%
    19:00 +1°C° 0 mm 4 mps 771 mmHg 54%
    20:00 +1°C° 0 mm 4 mps 771 mmHg 56%
    21:00 +1°C° 0 mm 4 mps 771 mmHg 57%
    22:00 +2°C° 0 mm 3 mps 771 mmHg 58%
    23:00 +2°C° 0 mm 3 mps 771 mmHg 59%

    21 December, Thursday

    Time Temperature Precipitation Wind Pressure Humidity
    00:00 +2°C° 0 mm 3 mps 771 mmHg 59%
    01:00 +2°C° 0 mm 3 mps 771 mmHg 60%
    02:00 +2°C° 0 mm 3 mps 771 mmHg 60%
    03:00 +2°C° 0 mm 3 mps 771 mmHg 61%
    04:00 +2°C° 0 mm 3 mps 770 mmHg 61%
    05:00 +1°C° 0 mm 4 mps 771 mmHg 61%
    06:00 +1°C° 0 mm 4 mps 771 mmHg 60%
    07:00 +1°C° 0 mm 4 mps 771 mmHg 60%
    08:00 +3°C° 0 mm 4 mps 771 mmHg 53%
    09:00 +5°C° 0 mm 4 mps 772 mmHg 47%
    10:00 +6°C° 0 mm 5 mps 772 mmHg 40%
    11:00 +7°C° 0 mm 5 mps 772 mmHg 39%
    12:00 +7°C° 0 mm 5 mps 771 mmHg 37%
    13:00 +8°C° 0 mm 5 mps 771 mmHg 36%
    14:00 +7°C° 0 mm 5 mps 771 mmHg 41%
    15:00 +5°C° 0 mm 6 mps 771 mmHg 46%
    16:00 +4°C° 0 mm 6 mps 771 mmHg 50%
    17:00 +3°C° 0 mm 6 mps 772 mmHg 53%
    18:00 +2°C° 0 mm 5 mps 772 mmHg 56%
    19:00 +2°C° 0 mm 5 mps 772 mmHg 58%
    20:00 +2°C° 0 mm 5 mps 772 mmHg 60%
    21:00 +1°C° 0 mm 5 mps 773 mmHg 61%
    22:00 +1°C° 0 mm 4 mps 773 mmHg 62%
    23:00 +1°C° 0 mm 4 mps 773 mmHg 61%
    Show more

    XHprof extension not loaded